User: anonymous   Login
Location: Unspecified
(0.0000°N, 0.0000°E)
Time: 23:57:36
(UTC+00:00)
Language:

USA 264 - Orbit

View from above orbital plane
View from above orbital plane
View from above satellite
View from above satellite

Ground track
Ground track

The orbit data is extracted from the following two-line orbital elements,

1 40964U 15058A   18241.84629855 0.00000000  00000-0  00000-0 0    08
2 40964  63.4376 124.6607 0042000 173.6837 186.3163 13.40759620    06
Epoch (UTC): 29 August 2018 20:18:40
Eccentricity: 0.0042000
inclination: 63.4376°
perigee height: 1075 km
apogee height: 1138 km
right ascension of ascending node: 124.6607°
argument of perigee: 173.6837°
revolutions per day: 13.40759620
mean anomaly at epoch: 186.3163°
orbit number at epoch: 0

The dashed part of the orbit path shows where the satellite is in the earth's shadow,  

DLR